Location: *
(38.9800°N, 16.0500°E)
Time: 22:14:45
(UTC+00:00)

Cosmos 1975 - Pass Details

Date: 07 April 2020
Orbit: 543 x 561 km, 82.5° (Epoch: 24 May)

Event Time Altitude Azimuth Distance (km) Brightness Sun altitude
Rises 02:18:42 0° 351° (N) 2,729 6.7 -24.7°
Reaches altitude 10° 02:20:52 10° 351° (N) 1,834 5.7 -24.3°
Enters shadow 02:23:57 51° 343° (NNW) 698 3.3 -23.8°
